TimePST,TemperatureF,Dew PointF,Humidity,Sea Level PressureIn,VisibilityMPH,Wind Direction,Wind SpeedMPH,Gust SpeedMPH,PrecipitationIn,Events,Conditions,WindDirDegrees,DateUTC
12:53 AM,25.0,21.0,85,30.31,7.0,West,4.6,-,N/A,,Clear,280,2013-12-17 08:53:00
1:53 AM,24.1,19.9,84,30.30,10.0,WNW,4.6,-,N/A,,Clear,300,2013-12-17 09:53:00
2:53 AM,23.0,19.9,88,30.29,8.0,Calm,Calm,-,N/A,,Clear,0,2013-12-17 10:53:00
3:53 AM,21.9,19.0,89,30.26,9.0,West,5.8,-,N/A,,Clear,270,2013-12-17 11:53:00
4:53 AM,21.0,18.0,88,30.26,7.0,West,3.5,-,N/A,,Clear,260,2013-12-17 12:53:00
5:53 AM,19.0,15.1,85,30.25,8.0,WNW,4.6,-,N/A,,Clear,290,2013-12-17 13:53:00
6:53 AM,19.0,16.0,88,30.24,9.0,Calm,Calm,-,N/A,,Clear,0,2013-12-17 14:53:00
7:53 AM,19.9,15.1,81,30.23,10.0,Calm,Calm,-,N/A,,Clear,0,2013-12-17 15:53:00
8:53 AM,26.1,21.9,84,30.23,9.0,South,3.5,-,N/A,,Clear,190,2013-12-17 16:53:00
9:53 AM,30.0,25.0,82,30.22,9.0,Calm,Calm,-,N/A,,Clear,0,2013-12-17 17:53:00
10:53 AM,36.0,28.0,73,30.18,10.0,Calm,Calm,-,N/A,,Clear,0,2013-12-17 18:53:00
11:53 AM,41.0,28.9,62,30.13,10.0,East,3.5,-,N/A,,Clear,100,2013-12-17 19:53:00
12:53 PM,44.1,30.0,58,30.10,10.0,Calm,Calm,-,N/A,,Clear,0,2013-12-17 20:53:00
1:53 PM,45.0,30.0,56,30.09,10.0,South,3.5,-,N/A,,Clear,190,2013-12-17 21:53:00
2:53 PM,45.0,30.0,56,30.07,10.0,East,3.5,-,N/A,,Clear,100,2013-12-17 22:53:00
3:53 PM,43.0,30.0,60,30.08,10.0,Calm,Calm,-,N/A,,Clear,0,2013-12-17 23:53:00
4:53 PM,37.0,28.9,73,30.09,10.0,SSW,3.5,-,N/A,,Clear,200,2013-12-18 00:53:00
5:53 PM,35.1,28.0,76,30.08,10.0,SSE,4.6,-,N/A,,Clear,150,2013-12-18 01:53:00
6:53 PM,32.0,26.1,79,30.09,10.0,Calm,Calm,-,N/A,,Clear,0,2013-12-18 02:53:00
7:53 PM,32.0,27.0,82,30.08,9.0,NW,5.8,-,N/A,,Clear,310,2013-12-18 03:53:00
8:53 PM,30.0,25.0,82,30.06,8.0,Calm,Calm,-,N/A,,Clear,0,2013-12-18 04:53:00
9:53 PM,27.0,23.0,85,30.06,7.0,WNW,4.6,-,N/A,,Clear,300,2013-12-18 05:53:00
10:53 PM,28.0,24.1,85,30.04,7.0,Variable,4.6,-,N/A,,Clear,0,2013-12-18 06:53:00
11:53 PM,27.0,24.1,89,30.04,7.0,Calm,Calm,-,N/A,,Clear,0,2013-12-18 07:53:00